User: anonymous   Login
Location: Eaton
(41.3139°N, 82.0207°W)
Time: 21:06:35
(UTC+00:00)
Language:

METEOR 2-5 DEB - Orbit

View from above orbital plane
View from above orbital plane
View from above satellite
View from above satellite

Ground track
Ground track

The orbit data is extracted from the following two-line orbital elements,

1 28974U 79095K   22020.43170387  .00001317  00000-0  58478-3 0  9996
2 28974  81.2057 285.5266 0028094 319.1384  40.7687 14.22339649820017
Epoch (UTC): 20 January 2022 10:21:39
Eccentricity: 0.0028094
inclination: 81.2057°
perigee height: 797 km
apogee height: 837 km
right ascension of ascending node: 285.5266°
argument of perigee: 319.1384°
revolutions per day: 14.22339649
mean anomaly at epoch: 40.7687°
orbit number at epoch: 82001

The dashed part of the orbit path shows where the satellite is in the earth's shadow,  

DLR